Regional Weather Roundup
Issued by NWS Jackson, KY

Home | Current Version | Previous Version | Text Only | Print | Product List | Glossary On
Versions: 1 2 3 4 5 6 7 8 9 10 11 12 13 14 15 16 17 18 19 20 21 22 23 24 25 26 27
000
ASUS43 KJKL 251110
RWRJKL

EAST KENTUCKY HOURLY WEATHER ROUNDUP
NATIONAL WEATHER SERVICE JACKSON KY
700 AM EDT TUE APR 25 2017

NOTE: "FAIR" INDICATES FEW OR NO CLOUDS BELOW 12,000 FEET WITH
NO SIGNIFICANT WEATHER AND/OR OBSTRUCTIONS TO VISIBILITY.

* THESE REPORTS ARE NOT UNDER NWS QUALITY CONTROL AND MAY NOT
  REPORT WEATHER SUCH AS PRECIPITATION AND FOG.

KYZ079-080-083-085-087-088-110-112-115-119-120-251200
...EASTERN KENTUCKY...

CITY           SKY/WX    TMP DP  RH WIND       PRES   REMARKS
JACKSON        CLOUDY    53  52  96 VRB5      29.78S
LONDON         CLEAR     51  49  92 N3        29.77S
SOMERSET*      MOCLDY    50  50 100 CALM      29.79R
MONTICELLO*    FOG       51  51 100 W10       29.80R VSB 1/4
WILLIAMSBURG*    N/A     50  50 100 CALM      29.77S VSB<1/4
MIDDLESBORO*   CLOUDY    52  52 100 CALM      29.78R
PIKE CO APT*   CLOUDY    52  52 100 N5        29.79R FOG
BIG SANDY APT* LGT RAIN  52  52 100 CALM      29.80R
MOREHEAD APT*  MOSUNNY   52  50  93 E7        29.81S
ASHLAND*       CLOUDY   N/A N/A N/A CALM      29.80
$$

KYZ035-036-041-042-044-050-067-078-099-251200
...CENTRAL KENTUCKY...

CITY           SKY/WX    TMP DP  RH WIND       PRES   REMARKS
MT STERLING*   CLEAR     50  50 100 E3        29.80R
FLEMING/MASON* CLEAR     50  49  97 E7        29.81
DANVILLE*      PTCLDY    46  46 100 CALM      29.80R
LEXINGTON      CLEAR     52  49  89 NE7       29.79R
FRANKFORT      CLEAR     51  48  89 CALM      29.78R
LOUISVILLE     PTCLDY    57  53  86 E3        29.78R
GLASGOW*       MOCLDY   N/A N/A N/A CALM      29.78R FOG
BOWLING GREEN  CLEAR     51  51 100 CALM      29.78R
$$

KYZ091>093-OHZ055-061-077-WVZ005-015-034-035-042-251200
...SOUTHERN OHIO/WEST VIRGINIA...

CITY           SKY/WX    TMP DP  RH WIND       PRES   REMARKS
COVINGTON      MOCLDY    55  50  83 NE6       29.80R
COLUMBUS       CLOUDY    55  48  77 E9        29.83R
DAYTON         PTCLDY    48  45  89 N3        29.83R
WILMINGTON     CLOUDY    52  49  89 E6        29.81R
HUNTINGTON     MOCLDY    53  48  83 N5        29.81R
CHARLESTON     LGT RAIN  52  49  89 NE3       29.79R
PINEVILLE*     RAIN      53  52  96 MISG      29.82R
BECKLEY        CLOUDY    52  49  89 NE5       29.78R
BLUEFIELD      LGT RAIN  48  47  96 E3        29.79R FOG
$$

VAZ002-007-008-TNZ017-027-036-066-071-251200
...SOUTHWEST VIRGINIA/EAST TENNESSEE...

CITY           SKY/WX    TMP DP  RH WIND       PRES   REMARKS
WISE*          CLOUDY    50  50 100 N6        29.80R
JONESVILLE*    CLOUDY    50  50 100 CALM      29.78R
ABINGDON*      CLOUDY    55  53  92 E7        29.75S
BRISTOL        MOCLDY    52  50  93 W5        29.76R
SEVIERVILLE*   CLOUDY    54  52  94 CALM      29.76R
KNOXVILLE      PTCLDY    52  50  93 E6        29.75F
LAFOLLETTE*    MOSUNNY   54  54 100 CALM      29.78S
OAK RIDGE      CLEAR     53  50  89 CALM      29.77S
CROSSVILLE     FOG       52  51  97 W3        29.79S VSB 1/4
NASHVILLE      CLEAR     51  50  96 CALM      29.79R
$$

...KEY TO REMARKS...
VSB - VISIBILITY IN MILES
WCI - WIND CHILL INDEX
HX  - HEAT INDEX

$$




USA.gov is the U.S. government's official web portal to all federal, state and local government web resources and services.